GW4489 Weather Reports


Display with metric or nautical units.
time (UTC)temp
F
wind
direction
speed
MPH
gust
MPH
rain 1hr
in
rain 24hr
in
rain mn
in
humidity
%
barometer
mb
20260906225003 88 336 3.0 9.0 0.00 0.06 0.04 61 1012.7
20260906224505 88 355 4.0 9.0 0.00 0.06 0.04 60 1012.6
20260906224003 88 323 4.0 12.0 0.00 0.06 0.04 60 1012.6
20260906223503 88 304 4.0 12.0 0.00 0.06 0.04 60 1012.6
20260906223012 88 347 5.0 13.0 0.00 0.06 0.04 60 1012.6
20260906222504 88 329 6.0 13.0 0.00 0.06 0.04 59 1012.5
20260906222003 88 5 7.0 14.0 0.00 0.06 0.04 59 1012.4
20260906221515 89 324 5.0 14.0 0.00 0.06 0.04 58 1012.4
20260906221007 90 337 4.0 15.0 0.00 0.06 0.04 57 1012.3
20260906220507 89 320 5.0 15.0 0.00 0.06 0.04 57 1012.3
20260906220039 89 327 4.0 12.0 0.00 0.06 0.04 56 1012.4
20260906215509 89 25 7.0 17.0 0.00 0.06 0.04 55 1012.3
20260906215010 90 42 7.0 17.0 0.00 0.06 0.04 56 1012.3
20260906214525 90 355 5.0 13.0 0.00 0.06 0.04 57 1012.2
20260906214018 90 336 7.0 12.0 0.00 0.06 0.04 57 1012.2
20260906213504 90 330 4.0 15.0 0.00 0.06 0.04 57 1012.2
20260906213006 90 24 5.0 15.0 0.00 0.06 0.04 57 1012.2
20260906212503 90 15 11.0 15.0 0.00 0.06 0.04 56 1012.3
20260906212004 90 320 5.0 12.0 0.00 0.06 0.04 57 1012.3
20260906211511 90 336 4.0 15.0 0.00 0.06 0.04 57 1012.4
20260906211005 92 351 8.0 15.0 0.00 0.06 0.04 53 1012.3
20260906210510 91 295 5.0 13.0 0.00 0.06 0.04 54 1012.2
20260906210021 92 325 4.0 13.0 0.00 0.06 0.04 55 1012.2
20260906205506 92 5 4.0 13.0 0.00 0.06 0.04 54 1012.3
20260906205007 91 5 7.0 13.0 0.00 0.06 0.04 56 1012.4
20260906204523 91 342 6.0 10.0 0.00 0.06 0.04 54 1012.4
20260906204010 92 348 5.0 10.0 0.00 0.06 0.04 53 1012.4
20260906203514 92 331 5.0 10.0 0.00 0.06 0.04 55 1012.3
20260906203033 92 340 5.0 10.0 0.00 0.06 0.04 56 1012.3
20260906202515 91 328 5.0 10.0 0.00 0.06 0.04 56 1012.3
20260906202005 91 319 3.0 9.0 0.00 0.06 0.04 56 1012.3
20260906201510 91 302 2.0 9.0 0.00 0.06 0.04 55 1012.4
20260906201008 93 18 4.0 9.0 0.00 0.06 0.04 53 1012.4
20260906200507 93 323 3.0 9.0 0.00 0.06 0.04 56 1012.5
20260906200028 93 32 3.0 10.0 0.00 0.06 0.04 53 1012.5
20260906195504 92 43 4.0 10.0 0.00 0.06 0.04 56 1012.4
20260906195008 92 340 4.0 9.0 0.00 0.06 0.04 56 1012.5
20260906194518 92 360 5.0 9.0 0.00 0.06 0.04 58 1012.6
20260906194009 92 323 4.0 9.0 0.00 0.06 0.04 57 1012.6
20260906193511 92 34 3.0 10.0 0.00 0.06 0.04 56 1012.7
20260906193024 92 60 3.0 10.0 0.00 0.06 0.04 56 1012.8
20260906192513 92 348 4.0 9.0 0.00 0.06 0.04 55 1012.9
20260906192012 92 292 2.0 10.0 0.00 0.06 0.04 56 1013.0
20260906191530 92 306 3.0 10.0 0.00 0.06 0.04 56 1013.1
20260906191016 92 355 4.0 9.0 0.00 0.06 0.04 56 1013.1
20260906190514 92 283 3.0 10.0 0.00 0.06 0.04 58 1013.2
20260906190008 92 352 5.0 10.0 0.00 0.06 0.04 57 1013.2
20260906185505 91 338 3.0 9.0 0.00 0.06 0.04 59 1013.2
20260906185006 91 263 3.0 9.0 0.00 0.06 0.04 57 1013.3
20260906184515 91 351 4.0 14.0 0.00 0.06 0.04 59 1013.4
20260906184008 91 16 6.0 14.0 0.00 0.06 0.04 58 1013.3
20260906183511 91 329 3.0 14.0 0.00 0.06 0.04 58 1013.4
20260906183034 91 260 5.0 14.0 0.00 0.06 0.04 59 1013.5
20260906182515 91 311 6.0 14.0 0.00 0.06 0.04 58 1013.5
20260906182013 91 298 5.0 10.0 0.00 0.06 0.04 58 1013.6
20260906181535 91 331 3.0 10.0 0.00 0.06 0.04 57 1013.6
20260906181012 91 220 3.0 13.0 0.00 0.06 0.04 60 1013.7
20260906180516 90 310 3.0 13.0 0.00 0.06 0.04 57 1013.7
20260906180038 91 325 2.0 8.0 0.00 0.06 0.04 58 1013.7
20260906175518 91 360 4.0 8.0 0.00 0.06 0.04 61 1013.8
20260906175025 90 312 1.0 8.0 0.00 0.06 0.04 61 1013.8
20260906174538 90 49 3.0 10.0 0.00 0.06 0.04 60 1013.8
20260906174008 89 309 3.0 10.0 0.00 0.06 0.04 60 1013.9
20260906173507 90 325 3.0 8.0 0.00 0.06 0.04 62 1014.0
20260906173021 89 344 4.0 10.0 0.00 0.06 0.04 61 1014.0
20260906172509 90 320 4.0 10.0 0.00 0.06 0.04 61 1014.1
20260906172010 89 217 2.0 8.0 0.00 0.06 0.04 63 1014.1
20260906171526 89 61 3.0 9.0 0.00 0.06 0.04 62 1014.3
20260906171014 89 36 3.0 10.0 0.00 0.06 0.04 64 1014.4
20260906170514 89 67 3.0 10.0 0.00 0.06 0.04 62 1014.5
20260906170029 89 312 4.0 10.0 0.00 0.06 0.04 63 1014.4
20260906165514 88 351 4.0 9.0 0.00 0.06 0.04 64 1014.5
20260906165021 88 360 3.0 9.0 0.00 0.06 0.04 66 1014.4
20260906164540 88 47 4.0 8.0 0.00 0.06 0.04 66 1014.5
20260906164017 87 28 4.0 8.0 0.00 0.06 0.04 65 1014.5
20260906163517 87 5 3.0 11.0 0.00 0.06 0.04 68 1014.5
20260906163044 87 14 6.0 11.0 0.00 0.06 0.04 67 1014.6
20260906162519 86 331 2.0 9.0 0.00 0.06 0.04 68 1014.6
20260906162010 86 327 3.0 9.0 0.00 0.06 0.04 67 1014.6
20260906161520 87 344 1.0 10.0 0.00 0.06 0.04 71 1014.7
20260906161010 86 23 4.0 10.0 0.00 0.06 0.04 69 1014.6
20260906160510 86 36 5.0 9.0 0.00 0.06 0.04 70 1014.7
20260906160043 86 311 3.0 9.0 0.00 0.06 0.04 68 1014.8
20260906155513 87 317 1.0 4.0 0.00 0.06 0.04 70 1014.7
20260906155014 85 317 1.0 4.0 0.00 0.06 0.04 69 1014.7
20260906154534 85 318 2.0 5.0 0.00 0.06 0.04 70 1014.7
20260906154015 84 316 2.0 5.0 0.00 0.06 0.04 71 1014.7
20260906153515 84 352 3.0 6.0 0.00 0.06 0.04 72 1014.7
20260906153039 84 25 2.0 6.0 0.00 0.06 0.04 72 1014.7
20260906152522 84 29 1.0 6.0 0.00 0.06 0.04 75 1014.7
20260906152023 83 34 2.0 6.0 0.00 0.06 0.04 72 1014.7
20260906151533 83 258 1.0 5.0 0.00 0.06 0.04 73 1014.7
20260906151018 82 47 1.0 6.0 0.00 0.06 0.04 75 1014.9
20260906150515 82 36 2.0 6.0 0.00 0.06 0.04 76 1015.0
20260906150042 82 5 2.0 5.0 0.00 0.06 0.04 77 1014.9
20260906145511 81 37 3.0 5.0 0.00 0.06 0.04 77 1015.1
20260906145014 80 5 3.0 7.0 0.00 0.06 0.04 80 1015.1
20260906144537 80 345 3.0 7.0 0.00 0.06 0.04 81 1015.0
20260906144014 80 229 2.0 7.0 0.00 0.06 0.04 81 1015.0
20260906143516 79 5 3.0 8.0 0.00 0.06 0.04 82 1015.1
20260906143037 79 233 4.0 8.0 0.00 0.06 0.04 80 1015.0
20260906142519 79 5 2.0 5.0 0.00 0.06 0.04 82 1015.1
20260906142017 79 336 2.0 5.0 0.00 0.06 0.04 82 1015.1
20260906141529 78 26 2.0 5.0 0.00 0.06 0.04 85 1015.1
20260906141007 78 286 1.0 7.0 0.00 0.06 0.04 85 1015.0
20260906140509 78 5 3.0 7.0 0.00 0.06 0.04 86 1015.2
20260906140003 78 5 3.0 7.0 0.00 0.06 0.04 88 1015.3
20260906135502 77 355 2.0 4.0 0.00 0.06 0.04 91 1015.3
20260906135003 76 221 1.0 2.0 0.00 0.06 0.04 92 1015.3
20260906134504 75 221 0.0 4.0 0.00 0.06 0.04 93 1015.5
20260906134003 75 276 1.0 4.0 0.00 0.06 0.04 94 1015.3
20260906133506 75 285 1.0 4.0 0.00 0.06 0.04 95 1015.3
20260906133003 74 211 0.0 3.0 0.00 0.06 0.04 96 1015.4
20260906132503 74 213 1.0 3.0 0.00 0.06 0.04 96 1015.4
20260906132005 74 213 0.0 3.0 0.00 0.06 0.04 96 1015.4
20260906131523 74 213 0.0 3.0 0.00 0.06 0.04 96 1015.4
20260906131007 75 112 0.0 2.0 0.00 0.06 0.04 97 1015.2
20260906130507 74 112 0.0 2.0 0.00 0.06 0.04 97 1015.2
20260906130030 74 238 0.0 1.0 0.00 0.06 0.04 97 1015.2
20260906125510 74 64 0.0 2.0 0.00 0.06 0.04 97 1015.2
20260906125010 73 64 0.0 2.0 0.00 0.06 0.04 97 1015.1
20260906124520 73 164 0.0 2.0 0.01 0.06 0.04 97 1015.1
20260906124004 72 164 0.0 0.0 0.01 0.06 0.04 98 1015.2
20260906123503 71 164 0.0 0.0 0.01 0.06 0.04 97 1015.2
20260906123007 70 164 0.0 0.0 0.01 0.06 0.04 97 1015.1
20260906122504 70 164 0.0 0.0 0.01 0.06 0.04 97 1015.1
20260906122002 70 164 0.0 1.0 0.01 0.06 0.04 96 1015.1
20260906121512 70 164 0.0 1.0 0.01 0.06 0.04 96 1015.0
20260906121005 70 175 0.0 0.0 0.01 0.06 0.04 96 1015.0
20260906120508 70 175 0.0 0.0 0.01 0.06 0.04 96 1015.0
20260906120014 69 175 0.0 1.0 0.01 0.06 0.04 96 1015.1
20260906115508 69 175 0.0 2.0 0.01 0.06 0.04 96 1015.0
20260906115010 69 175 0.0 2.0 0.01 0.06 0.04 96 1014.9
20260906114534 69 163 0.0 0.0 0.00 0.05 0.03 96 1014.7
20260906114013 69 163 0.0 0.0 0.00 0.05 0.03 96 1014.7
20260906113512 69 163 0.0 0.0 0.00 0.05 0.03 96 1014.5
20260906113027 69 163 0.0 0.0 0.00 0.05 0.03 96 1014.4
20260906112503 69 163 0.0 0.0 0.00 0.05 0.03 96 1014.3
20260906112002 69 163 0.0 0.0 0.00 0.05 0.03 95 1014.3
20260906111507 70 163 0.0 0.0 0.00 0.05 0.03 96 1014.3
20260906111002 70 163 0.0 0.0 0.00 0.05 0.03 96 1014.1
20260906110503 70 163 0.0 0.0 0.00 0.05 0.03 95 1014.1
20260906110016 69 163 0.0 0.0 0.00 0.05 0.03 95 1014.1
20260906105506 70 163 0.0 0.0 0.00 0.05 0.03 95 1014.1
20260906105012 70 163 0.0 1.0 0.00 0.05 0.03 95 1014.0
20260906104523 70 163 0.0 2.0 0.00 0.05 0.03 95 1013.9
20260906104011 70 163 1.0 2.0 0.00 0.05 0.03 95 1013.9
20260906103511 70 163 0.0 0.0 0.00 0.05 0.03 95 1013.9
20260906103025 70 163 0.0 0.0 0.00 0.05 0.03 95 1013.8
20260906102513 70 163 0.0 0.0 0.00 0.05 0.03 95 1014.0
20260906102016 70 163 0.0 0.0 0.00 0.05 0.03 95 1014.0
20260906101529 70 163 0.0 0.0 0.00 0.05 0.03 94 1014.1
20260906101015 70 163 0.0 0.0 0.00 0.05 0.03 95 1014.1
20260906100503 70 163 0.0 0.0 0.00 0.05 0.03 95 1014.1
20260906100010 70 163 0.0 0.0 0.00 0.05 0.03 95 1014.1
20260906095506 70 163 0.0 0.0 0.00 0.05 0.03 95 1014.0
20260906095006 70 163 0.0 0.0 0.00 0.05 0.03 95 1014.0
20260906094527 71 163 0.0 0.0 0.00 0.05 0.03 94 1014.1
20260906094011 71 163 0.0 0.0 0.00 0.05 0.03 95 1014.0
20260906093510 71 163 0.0 0.0 0.00 0.05 0.03 95 1014.0
20260906093019 71 163 0.0 0.0 0.00 0.05 0.03 95 1013.9
20260906092512 71 163 0.0 0.0 0.00 0.05 0.03 94 1013.9
20260906092016 71 163 0.0 2.0 0.00 0.05 0.03 94 1013.9
20260906091527 71 163 0.0 4.0 0.00 0.05 0.03 95 1013.8
20260906091013 71 163 1.0 5.0 0.00 0.05 0.03 95 1013.9
20260906090518 71 163 1.0 5.0 0.00 0.05 0.03 95 1013.9
20260906090030 71 164 3.0 5.0 0.00 0.05 0.03 95 1013.8
20260906085513 71 213 0.0 3.0 0.00 0.05 0.03 94 1013.9
20260906085013 71 213 1.0 3.0 0.00 0.05 0.03 94 1013.9
20260906084515 72 213 1.0 2.0 0.00 0.05 0.03 94 1013.9
20260906084009 72 213 1.0 3.0 0.00 0.05 0.03 95 1014.0
20260906083507 72 213 1.0 3.0 0.00 0.05 0.03 94 1014.0
20260906083015 72 213 1.0 3.0 0.00 0.05 0.03 94 1013.9
20260906082507 71 213 1.0 3.0 0.00 0.05 0.03 94 1014.0
20260906082012 72 213 0.0 0.0 0.00 0.05 0.03 94 1013.9
20260906081539 72 213 0.0 1.0 0.00 0.05 0.03 94 1013.8
20260906081010 72 213 0.0 4.0 0.00 0.05 0.03 94 1013.7
20260906080512 72 213 1.0 4.0 0.00 0.05 0.03 94 1013.7
20260906080004 72 220 2.0 4.0 0.00 0.05 0.03 94 1013.7
20260906075504 72 212 0.0 4.0 0.00 0.05 0.03 94 1013.7
20260906075004 72 212 1.0 6.0 0.00 0.05 0.03 93 1013.7
20260906074510 72 212 1.0 6.0 0.00 0.05 0.03 94 1013.8
20260906074003 72 210 4.0 6.0 0.00 0.05 0.03 93 1013.6
20260906073504 71 173 2.0 4.0 0.00 0.05 0.03 92 1013.3
20260906073013 72 150 1.0 3.0 0.00 0.05 0.03 93 1013.2
20260906072507 72 130 0.0 2.0 0.00 0.05 0.03 92 1013.2
20260906072007 72 130 0.0 3.0 0.00 0.05 0.03 92 1013.1
20260906071518 72 130 0.0 3.0 0.00 0.05 0.03 92 1013.2
20260906071002 72 132 1.0 3.0 0.00 0.05 0.03 92 1013.0
20260906070503 72 132 1.0 3.0 0.00 0.05 0.03 92 1013.1
20260906070004 72 126 1.0 4.0 0.00 0.05 0.03 92 1013.3
20260906065503 72 126 1.0 4.0 0.00 0.05 0.03 92 1013.3
20260906065003 72 130 1.0 4.0 0.00 0.05 0.03 92 1013.4
20260906064508 72 128 3.0 5.0 0.00 0.05 0.03 91 1013.5
20260906064003 72 30 1.0 5.0 0.00 0.05 0.03 92 1013.6
20260906063505 72 34 1.0 5.0 0.00 0.05 0.03 92 1013.7
20260906063008 73 111 1.0 5.0 0.00 0.05 0.03 91 1013.8
20260906062508 73 148 0.0 8.0 0.00 0.05 0.03 91 1014.0
20260906062009 73 146 4.0 8.0 0.01 0.05 0.03 91 1014.1
20260906061532 73 46 0.0 9.0 0.01 0.05 0.03 91 1014.1
20260906061007 73 94 5.0 9.0 0.01 0.05 0.03 91 1014.0
20260906060508 73 135 2.0 5.0 0.02 0.05 0.03 91 1014.0
20260906060023 73 135 2.0 5.0 0.03 0.05 0.03 91 1014.1
20260906055511 73 171 3.0 5.0 0.04 0.05 0.03 90 1014.2
20260906055003 73 223 1.0 5.0 0.05 0.05 0.03 90 1014.3
20260906054504 73 290 0.0 3.0 0.05 0.05 0.03 90 1014.6
20260906054004 73 290 0.0 3.0 0.05 0.05 0.03 90 1014.8
20260906053504 73 290 1.0 3.0 0.05 0.05 0.03 89 1014.9
20260906053011 74 290 1.0 5.0 0.05 0.05 0.03 89 1015.0
20260906052507 74 290 2.0 5.0 0.05 0.05 0.03 89 1015.2
20260906052004 74 20 3.0 5.0 0.04 0.04 0.02 88 1014.8
20260906051512 74 52 2.0 5.0 0.04 0.04 0.02 88 1014.6
20260906051008 75 216 2.0 4.0 0.04 0.04 0.02 87 1014.8
20260906050507 75 216 0.0 4.0 0.03 0.03 0.01 87 1014.9
20260906050022 75 216 1.0 4.0 0.02 0.02 0.00 86 1014.8
20260906045510 76 216 2.0 4.0 0.01 0.01 0.01 85 1015.1
20260906045012 76 277 1.0 3.0 0.00 0.00 0.00 85 1015.3
20260906044530 77 5 0.0 2.0 0.00 0.00 0.00 84 1015.2
20260906044015 77 5 0.0 5.0 0.00 0.00 0.00 84 1015.1
20260906043514 77 5 0.0 9.0 0.00 0.00 0.00 84 1014.8
20260906043010 77 309 1.0 11.0 0.00 0.00 0.00 85 1015.0
20260906042503 76 355 3.0 11.0 0.00 0.00 0.00 86 1014.9
20260906042002 76 324 4.0 11.0 0.00 0.00 0.00 87 1014.9
20260906041512 76 343 3.0 12.0 0.00 0.00 0.00 88 1014.9
20260906041004 75 314 5.0 12.0 0.00 0.00 0.00 89 1015.1
20260906040507 75 290 2.0 4.0 0.00 0.00 0.00 88 1014.4
20260906040014 75 220 0.0 2.0 0.00 0.00 0.00 88 1014.2
20260906035508 75 220 0.0 2.0 0.00 0.00 0.00 88 1014.4
20260906035010 75 220 0.0 3.0 0.00 0.00 0.00 88 1014.6
20260906034524 75 220 1.0 3.0 0.00 0.00 0.00 87 1014.7
20260906034012 76 220 1.0 3.0 0.00 0.00 0.00 87 1014.8
20260906033513 76 90 1.0 2.0 0.00 0.00 0.00 87 1014.8
20260906033027 76 90 0.0 0.0 0.00 0.00 0.00 87 1014.6
20260906032515 76 90 0.0 2.0 0.00 0.00 0.00 87 1014.4
20260906032015 76 90 0.0 3.0 0.00 0.00 0.00 87 1014.4
20260906031506 76 90 1.0 4.0 0.00 0.00 0.00 87 1014.3
20260906031004 76 89 1.0 4.0 0.00 0.00 0.00 87 1014.2
20260906030507 75 19 2.0 3.0 0.00 0.00 0.00 87 1014.0
20260906030011 75 19 0.0 3.0 0.00 0.00 0.00 87 1013.9
20260906025506 75 19 1.0 3.0 0.00 0.00 0.00 87 1014.0
20260906025008 75 11 0.0 1.0 0.00 0.00 0.00 86 1014.2
20260906024516 76 11 0.0 2.0 0.00 0.00 0.00 86 1014.1
20260906024012 76 11 0.0 2.0 0.00 0.00 0.00 86 1013.9
20260906023512 76 11 0.0 3.0 0.00 0.00 0.00 86 1013.7
20260906023024 76 11 0.0 4.0 0.00 0.00 0.00 85 1013.6
20260906022512 76 11 2.0 5.0 0.00 0.00 0.00 86 1013.6
20260906022012 76 19 3.0 5.0 0.00 0.00 0.00 85 1013.6
20260906021529 76 23 2.0 5.0 0.00 0.00 0.00 84 1013.5
20260906021015 77 90 0.0 0.0 0.00 0.00 0.00 83 1013.5
20260906020516 77 92 0.0 0.0 0.00 0.00 0.00 83 1013.3
20260906020043 77 92 0.0 0.0 0.00 0.00 0.00 83 1013.1
20260906015509 78 92 0.0 0.0 0.00 0.00 0.00 82 1013.1
20260906015007 78 92 0.0 0.0 0.00 0.00 0.00 82 1013.1
20260906014514 78 92 0.0 0.0 0.00 0.00 0.00 81 1013.0
20260906014012 78 92 0.0 0.0 0.00 0.00 0.00 81 1013.0
20260906013506 78 92 0.0 0.0 0.00 0.00 0.00 81 1012.9
20260906013019 78 92 0.0 0.0 0.00 0.00 0.00 82 1012.9
20260906012510 78 92 0.0 0.0 0.00 0.00 0.00 81 1012.9
20260906012014 78 92 0.0 2.0 0.00 0.00 0.00 81 1012.9
20260906011527 78 92 0.0 3.0 0.00 0.00 0.00 80 1012.9
20260906011017 78 92 1.0 3.0 0.00 0.00 0.00 81 1012.8
20260906010516 78 92 0.0 1.0 0.00 0.00 0.00 79 1012.9
20260906010006 78 92 0.0 3.0 0.00 0.00 0.00 79 1012.9
20260906005502 79 92 0.0 3.0 0.00 0.00 0.00 79 1013.1
20260906005005 79 92 0.0 3.0 0.00 0.00 0.00 77 1013.1
20260906004510 80 92 0.0 3.0 0.00 0.00 0.00 77 1013.1
20260906004006 80 92 0.0 3.0 0.00 0.00 0.00 77 1013.1
20260906003506 80 92 1.0 3.0 0.00 0.00 0.00 76 1013.2
20260906003019 80 92 0.0 3.0 0.00 0.00 0.00 75 1013.3
20260906002505 81 92 1.0 3.0 0.00 0.00 0.00 74 1013.2
20260906002003 82 51 0.0 0.0 0.00 0.00 0.00 73 1013.2
20260906001503 83 51 0.0 0.0 0.00 0.00 0.00 71 1013.1
20260906001002 83 51 0.0 1.0 0.00 0.00 0.00 71 1013.2
20260906000503 84 51 0.0 1.0 0.00 0.00 0.00 68 1013.2
20260906000004 84 51 0.0 2.0 0.00 0.00 0.00 67 1013.1
20260905235503 85 51 0.0 2.0 0.00 0.00 0.00 66 1013.2
20260905235004 86 51 1.0 2.0 0.00 0.00 0.00 65 1013.1
20260905234510 87 238 0.0 1.0 0.00 0.00 0.00 63 1013.0
20260905234004 88 234 0.0 1.0 0.00 0.00 0.00 62 1013.1
20260905233507 88 235 0.0 1.0 0.00 0.00 0.00 61 1013.0
20260905233017 89 205 0.0 0.0 0.00 0.00 0.00 59 1012.8
20260905232510 90 205 0.0 0.0 0.00 0.00 0.00 58 1012.8
20260905232007 90 205 0.0 0.0 0.00 0.00 0.00 58 1012.8
20260905231513 90 205 0.0 1.0 0.00 0.00 0.00 58 1012.8
20260905231005 90 205 0.0 2.0 0.00 0.00 0.00 57 1012.8
20260905230507 90 247 0.0 3.0 0.00 0.00 0.00 60 1012.9
20260905230003 90 243 1.0 3.0 0.00 0.00 0.00 57 1012.9
20260905225502 90 250 2.0 3.0 0.00 0.00 0.00 57 1012.8